Flag for Norway Weather past 2 weeks in Ålesund, Norway

Now
61 °F

Broken clouds.


Feels Like: 61 °F
Forecast: 54 / 63 °F
Wind: 12 mph from Southwest

Location: Alesund / Vigra

Current Time: Aug 29, 2015 at 11:53:28 AM

Latest Report: Aug 29, 2015 at 11:20 AM


Visibility: N/A

Pressure: 29.86 "Hg

Humidity: 68%

Dew point: 50 °F

Location of ÅlesundLocation

Historic Weather in Ålesund — Graph

°F

Ålesund temperature yesterday

Maximum temperature yesterday: 61 °F (at 2:50 PM)
Minimum temperature yesterday: 54 °F (at 2:20 AM)
Average temperature yesterday: 57 °F

Past Weeks' High & Low Weather Summary

 TemperatureHumidityPressure
High77 °F (Aug 20, 12:50 PM)100% (Aug 17, 3:20 AM)30.21 "Hg (Aug 17, 3:20 AM)
Low52 °F (Aug 19, 2:50 AM)26% (Aug 20, 12:50 PM)29.45 "Hg (Aug 26, 1:20 AM)
Average63 °F75%29.93 "Hg
* Reported Aug 14 9:20 AM — Aug 29 9:50 AM, Ålesund, Weather by CustomWeather, © 2015

Note: Actual official high and low records may vary slightly from our data, if they occured in-between our weather recording intervals... More about our weather records

Advertising

Ålesund weather history for previous 24 hours

 ConditionsComfort  
Time TempWeatherWind HumidityBarometerVisibility
9:50 AM
Sat, Aug 29
59 °FBroken clouds.12 mph72%29.83 "HgN/A
9:20 AM59 °FBroken clouds.8 mph68%29.83 "HgN/A
8:50 AM59 °FScattered clouds.14 mph68%29.83 "HgN/A
7:50 AM57 °FBroken clouds.13 mph72%29.80 "HgN/A
7:20 AM57 °FScattered showers. Broken clouds.8 mph77%29.80 "HgN/A
6:50 AM55 °FSprinkles. Partly cloudy.10 mph82%29.80 "HgN/A
6:20 AM57 °FScattered showers. Partly cloudy.10 mph77%29.80 "HgN/A
5:50 AM57 °FMostly cloudy.14 mph77%29.80 "HgN/A
4:50 AM55 °FLight rain. Mostly cloudy.9 mph82%29.80 "HgN/A
4:20 AM55 °FPartly cloudy.13 mph82%29.80 "HgN/A
3:50 AM57 °FOvercast.14 mph77%29.80 "HgN/A
3:20 AM57 °FMostly cloudy.14 mph77%29.80 "HgN/A
2:50 AM57 °FMostly cloudy.13 mph77%29.80 "HgN/A
2:20 AM55 °FMostly cloudy.13 mph82%29.77 "HgN/A
1:50 AM55 °FLight rain. Partly cloudy.14 mph88%29.77 "HgN/A
1:20 AM55 °FRain. Overcast.12 mph82%29.77 "Hg6 mi
12:50 AM55 °FPassing clouds.15 mph82%29.77 "HgN/A
12:20 AM55 °FMostly cloudy.8 mph88%29.74 "HgN/A
11:50 PM
Fri, Aug 28
55 °FLight rain. Passing clouds.15 mph88%29.74 "Hg4 mi
10:50 PM57 °FLight rain. Mostly cloudy.14 mph77%29.74 "HgN/A
10:20 PM55 °FPassing clouds.15 mph82%29.74 "HgN/A
9:50 PM55 °FScattered clouds.17 mph82%29.74 "HgN/A
9:20 PM57 °FPartly sunny.16 mph82%29.71 "HgN/A
8:50 PM57 °FBroken clouds.21 mph82%29.71 "HgN/A
8:20 PM57 °FScattered showers. Broken clouds.17 mph82%29.71 "HgN/A
7:50 PM55 °FLight rain. Broken clouds.14 mph88%29.71 "HgN/A
7:20 PM55 °FBroken clouds.16 mph88%29.68 "HgN/A
6:50 PM55 °FSprinkles. Broken clouds.21 mph94%29.68 "Hg5 mi
6:20 PM57 °FLight rain. Broken clouds.20 mph88%29.68 "HgN/A
5:50 PM57 °FDrizzle. Broken clouds.21 mph88%29.68 "HgN/A
5:20 PM57 °FSprinkles. Broken clouds.20 mph88%29.65 "HgN/A
4:50 PM57 °FScattered showers. Broken clouds.22 mph88%29.65 "Hg4 mi
4:20 PM59 °FBroken clouds.21 mph82%29.65 "HgN/A
3:50 PM59 °FBroken clouds.21 mph82%29.65 "HgN/A
3:20 PM57 °FScattered showers. Broken clouds.18 mph88%29.65 "HgN/A
2:50 PM61 °FScattered showers. Broken clouds.20 mph77%29.62 "HgN/A
2:20 PM59 °FScattered showers. Broken clouds.15 mph88%29.62 "HgN/A
1:50 PM57 °FScattered showers. Broken clouds.14 mph88%29.62 "HgN/A
1:20 PM57 °FScattered showers. Broken clouds.14 mph88%29.62 "HgN/A
12:50 PM55 °FDrizzle. Broken clouds.16 mph88%29.59 "Hg5 mi
12:20 PM57 °FScattered showers. Broken clouds.14 mph88%29.59 "HgN/A
11:50 AM55 °FDrizzle. Broken clouds.15 mph88%29.59 "HgN/A
11:20 AM57 °FBroken clouds.18 mph82%29.56 "HgN/A
Weather by CustomWeather, © 2015

See weather overviewHow to use our weather pages